Location: Newark
(9.4667°S, 159.8167°E)
Time: 10:11:16
(UTC+00:00)

Vanguard 1 - Pass Details

Date: 21 November 2019
Orbit: 652 x 3832 km, 34.3° (Epoch: 09 December)

Event Time Altitude Azimuth Distance (km) Brightness Sun altitude
Rises 16:19:28 0° 232° (SW) 7,170 14.3 -34.2°
Reaches altitude 10° 16:24:06 10° 227° (SW) 6,439 14.0 -33.2°
Maximum altitude 16:46:34 58° 151° (SSE) 4,197 13.3 -28.4°
Drops below altitude 10° 17:06:48 10° 75° (ENE) 5,945 14.6 -24.0°
Sets 17:10:47 0° 71° (ENE) 6,628 14.9 -23.1°
